Tracking 20241 objects as of 25-Jan-2020
HD Live streaming from Space Station
objects crossing your sky now

GOES 1 (SMS-C)

Track GOES 1 (SMS-C) now!
GOES 1 (SMS-C) is classified as:


NORAD ID: 8366
Int'l Code: 1975-100A
Perigee: 35,772.3 km
Apogee: 35,815.3 km
Inclination: 10.3 °
Period: 1,436.1 minutes
Semi major axis: 42164 km
RCS: 3.1655 m2 (large)
Launch date: October 16, 1975
Source: United States (US)
Launch site: AIR FORCE EASTERN TEST RANGE (AFETR)
aabbcc
Your satellite tracking list
Your tracking list is empty




NASA's NSSDC Master Catalog

Two Line Element Set (TLE):
1  8366U 75100A   20024.47317068 -.00000224 +00000-0 +00000-0 0  9999
2  8366 010.2691 306.8170 0005096 342.0351 284.1865 01.00271573161645
Source of the keplerian elements: AFSPC